[[{"header":{"parameterUnit":"m.s-1","parameterCategory":2,"la1":30.2991,"la2":30.254,"lo1":-89.0895,"lo2":-89.0444,"dy":0.0017,"dx":0.0017,"nx":28,"ny":28,"refTime":"2023-09-22T21:00:00:Z","depth":"0","parameterNumber":2,"parameterNumberName":"U-component_of_CURRENTS"},"data":[0,0,0,0,0,0,0,0,0,0,0,0,0,0,0,0,0,0,0,0,0,0,0,0,0,0,0,0,0,0,0,0,0,0,0,0,0,0,0,0,0,0,0,0,0,0,0,0,0,0,0,0,0,0,0,0,0,0,0.3065,0.3065,0,0.3077,0.3077,0.3077,0.3059,0.3058,0.3058,0.3058,0.3021,0.302,0.3019,0,0,0,0,0,0,0,0,0,0,0,0,0,0.3035,0.3036,0.3065,0.3065,0.3066,0.3077,0.3077,0.3077,0.3059,0.3058,0.3058,0.3057,0.3021,0.302,0.3019,0,0,0,0,0,0,0,0,0,0,0,0,0,0.3045,0.3036,0.3065,0.306,0.306,0.3077,0.3077,0.3077,0.3059,0.3058,0.3058,0.3057,0.3021,0.302,0.3019,0.3025,0,0,0.3016,0.3016,0,0,0,0,0,0,0,0,0.3045,0.3046,0.306,0.3061,0.3061,0.3068,0.3053,0.3058,0.3059,0.3056,0.3058,0.3057,0.3034,0.3032,0.3032,0.3023,0.3021,0.3016,0.3016,0.3015,0.3015,0,0,0,0,0,0,0,0.3044,0.3046,0.3067,0.3061,0.3061,0.3061,0.3061,0.3054,0.3045,0.3057,0.3056,0.3062,0.3033,0.3033,0.3031,0.3021,0.3016,0.3015,0.3015,0.3015,0.3044,0.3045,0,0,0,0,0,0,0.3048,0.3045,0.3067,0.3068,0.3054,0.3062,0.3062,0.3064,0.3046,0.3044,0.3062,0.3061,0.3035,0.3032,0.303,0.3071,0.3015,0.3014,0.3014,0.3042,0.3044,0.3046,0,0,0,0,0,0,0.3048,0.305,0.3066,0.3059,0.3061,0.3063,0.3065,0.3065,0.307,0.3052,0.3048,0.3069,0.3035,0.3031,0.3038,0.3068,0.3014,0.3013,0.3041,0.3043,0.3045,0.3131,0,0,0,0,0,0,0.3047,0.305,0.3056,0.3059,0.3062,0.3087,0.3066,0.3065,0.3075,0.3074,0.3056,0.3052,0.3034,0.3039,0.3037,0.3066,0.3012,0.3039,0.3042,0.3044,0.3126,0.3136,0.3144,0,0,0,0,0,0.3045,0.3059,0.3056,0.3059,0.3069,0.3088,0.3089,0.3087,0.3076,0.3087,0.3077,0.3053,0.3054,0.304,0.3036,0.3066,0.3038,0.3041,0.3044,0.3123,0.3134,0.3143,0,0,0,0,0,0,0.3049,0.3059,0.3055,0.307,0.3083,0.3086,0.3098,0.3094,0.3095,0.3093,0.3068,0.3064,0.3084,0.3062,0.3047,0.3082,0.3043,0.3045,0.3103,0.3114,0.3122,0.313,0.3012,0,0,0,0,0,0.3054,0.3066,0.3075,0.3088,0.3096,0.3097,0.3105,0.3106,0.3107,0.3107,0.3097,0.3089,0.3094,0.3093,0.309,0.3106,0.3115,0.3123,0.3131,0.3139,0.3143,0.3184,0.3197,0.3056,0.3056,0.3055,0,0,0.306,0.3067,0.3074,0.3091,0.3097,0.3119,0.31,0.312,0.3139,0.3103,0.3124,0.312,0.3106,0.313,0.3136,0.3114,0.3191,0.3143,0.3149,0.3149,0.3188,0.3202,0.3214,0.3058,0.3057,0.3057,0,0,0.308,0.3084,0.3102,0.3117,0.3137,0.3141,0.315,0.3161,0.3167,0.3187,0.3174,0.319,0.3185,0.3192,0.3191,0.3244,0.3238,0.3242,0.3289,0.3329,0.3341,0.3352,0.3415,0.343,0.3243,0.3243,0.3244,0,0.3089,0.3107,0.3112,0.3136,0.3149,0.3154,0.3176,0.3192,0.3205,0.3213,0.3203,0.3225,0.3218,0.3253,0.3277,0.3266,0.3292,0.3252,0.3342,0.3352,0.3362,0.3423,0.3439,0.3248,0.3247,0.3247,0.3247,0,0.3118,0.314,0.3155,0.3183,0.3198,0.3223,0.3241,0.3261,0.3266,0.3277,0.3312,0.3314,0.3323,0.3334,0.3322,0.3387,0.3389,0.3353,0.3318,0.3381,0.3442,0.3457,0.3254,0.3253,0.3251,0.325,0,0,0.3106,0.3166,0.3166,0.3186,0.3224,0.3235,0.3276,0.3306,0.3334,0.3355,0.3392,0.3417,0.3417,0.3418,0.3415,0.3455,0.3562,0.3439,0.3439,0.3507,0.3678,0.3637,0.365,0.3543,0.3546,0.3547,0.3705,0,0.3124,0.3171,0.3196,0.3238,0.3259,0.3285,0.3321,0.335,0.3377,0.3421,0.3438,0.3479,0.345,0.3473,0.3506,0.3546,0.36,0.3524,0.36,0.3603,0.3563,0.3665,0.3482,0.3603,0.372,0.3722,0.3724,0,0.3122,0.3159,0.3202,0.3258,0.3269,0.3301,0.3346,0.3385,0.3449,0.3476,0.3516,0.3535,0.3606,0.3571,0.3672,0.3627,0.3663,0.3692,0.3697,0.3635,0.359,0.3551,0.3625,0.3547,0.3747,0.3745,0.3743,0,0.3078,0.3148,0.318,0.3202,0.3275,0.3299,0.3337,0.3395,0.3429,0.3525,0.3557,0.3631,0.3673,0.373,0.3784,0.3742,0.3901,0.3843,0.3846,0.3845,0.369,0.367,0.3694,0.3924,0.3924,0.3924,0.3923,0,0.3068,0.3092,0.3167,0.319,0.3227,0.3283,0.3332,0.3385,0.3466,0.3519,0.3581,0.364,0.3714,0.3796,0.3837,0.3903,0.3945,0.3886,0.3887,0.3718,0.37,0.3621,0.3575,0.393,0.3928,0.3927,0.3926,0,0.3014,0.3067,0.3109,0.319,0.321,0.3235,0.3317,0.3352,0.3443,0.352,0.3558,0.3671,0.3798,0.3873,0.3997,0.3964,0.3932,0.4052,0.3865,0.3841,0.3726,0.369,0.3594,0.3484,0.4078,0.4078,0.4078,0,0.2995,0.3014,0.3086,0.3102,0.3143,0.3193,0.322,0.3324,0.3369,0.3534,0.3564,0.3722,0.381,0.3977,0.3996,0.4084,0.3961,0.3939,0.3809,0.3726,0.3689,0.3546,0.3449,0.3661,0.3657,0.3655,0.3652,0,0.296,0.2983,0.3014,0.3051,0.3082,0.3108,0.317,0.3207,0.3341,0.3411,0.3539,0.3639,0.3809,0.3814,0.3922,0.394,0.373,0.3883,0.383,0.3404,0.3214,0.3104,0.358,0.3627,0.363,0.3632,0.3633,0.3634,0.2915,0.2922,0.296,0.2973,0.3007,0.3016,0.2997,0.3082,0.3145,0.322,0.3415,0.348,0.36,0.3722,0.3725,0.3607,0.3598,0.3473,0.3459,0.3341,0.3148,0.3593,0.3609,0.3611,0.3613,0.3615,0.3617,0,0.283,0.2846,0.2876,0.2881,0.2858,0.2909,0.2938,0.2898,0.2919,0.3058,0.3138,0.3238,0.3262,0.3345,0.3327,0.3197,0.3021,0.3108,0.2852,0.2794,0.3226,0.3121,0.2988,0.2988,0.2988,0.2989,0.2989,0.2989,0.2787,0.2766,0.2776,0.2713,0.271,0.263,0.2607,0.259,0.2649,0.2675,0.2715,0.2827,0.3043,0.311,0.301,0.2923,0.2688,0.2544,0.2577,0.2881,0.2912,0.2942,0.2834,0.2643,0.2642,0.1987,0.1982,0.1978]},{"header":{"parameterUnit":"m.s-1","parameterCategory":2,"la1":30.2991,"la2":30.254,"lo1":-89.0895,"lo2":-89.0444,"dy":0.0017,"dx":0.0017,"nx":28,"ny":28,"refTime":"2023-09-22T21:00:00:Z","depth":"0","parameterNumber":3,"parameterNumberName":"V-component_of_CURRENTS"},"data":[0,0,0,0,0,0,0,0,0,0,0,0,0,0,0,0,0,0,0,0,0,0,0,0,0,0,0,0,0,0,0,0,0,0,0,0,0,0,0,0,0,0,0,0,0,0,0,0,0,0,0,0,0,0,0,0,0,0,-0.0151,-0.0152,0,-0.0201,-0.0202,-0.0202,-0.0227,-0.0227,-0.0227,-0.0227,-0.0303,-0.0305,-0.0307,0,0,0,0,0,0,0,0,0,0,0,0,0,-0.0092,-0.0093,-0.0151,-0.0152,-0.0152,-0.0201,-0.0202,-0.0202,-0.0227,-0.0227,-0.0227,-0.0227,-0.0302,-0.0305,-0.0307,0,0,0,0,0,0,0,0,0,0,0,0,0,-0.0128,-0.0093,-0.0151,-0.017,-0.0172,-0.0201,-0.0202,-0.0203,-0.0227,-0.0227,-0.0227,-0.0227,-0.0301,-0.0304,-0.0307,-0.0328,0,0,-0.0317,-0.0318,0,0,0,0,0,0,0,0,-0.0126,-0.013,-0.0167,-0.0169,-0.0171,-0.0207,-0.0209,-0.0246,-0.0227,-0.0206,-0.0227,-0.0227,-0.0273,-0.0279,-0.0288,-0.0331,-0.0334,-0.0317,-0.0319,-0.032,-0.0321,0,0,0,0,0,0,0,-0.0123,-0.0128,-0.0171,-0.0167,-0.017,-0.0181,-0.0186,-0.0216,-0.024,-0.0208,-0.021,-0.0215,-0.0275,-0.0285,-0.029,-0.0336,-0.0317,-0.032,-0.0322,-0.0323,-0.0406,-0.0406,0,0,0,0,0,0,-0.0116,-0.0126,-0.017,-0.0173,-0.0147,-0.0182,-0.0188,-0.0196,-0.0239,-0.0246,-0.0215,-0.0216,-0.028,-0.0287,-0.0293,-0.0321,-0.032,-0.0323,-0.0325,-0.0405,-0.0406,-0.0406,0,0,0,0,0,0,-0.0114,-0.0119,-0.0168,-0.015,-0.0157,-0.0183,-0.0192,-0.0197,-0.0206,-0.0244,-0.0251,-0.0219,-0.028,-0.0289,-0.032,-0.0324,-0.0325,-0.0327,-0.0405,-0.0405,-0.0406,-0.0376,0,0,0,0,0,0,-0.0112,-0.0118,-0.0122,-0.0149,-0.0157,-0.0179,-0.0193,-0.0198,-0.021,-0.0211,-0.025,-0.0257,-0.0281,-0.0315,-0.0323,-0.0328,-0.033,-0.0404,-0.0405,-0.0406,-0.0376,-0.0375,-0.0374,0,0,0,0,0,-0.011,-0.0116,-0.0122,-0.0127,-0.0161,-0.0179,-0.0184,-0.0203,-0.021,-0.0212,-0.0241,-0.0256,-0.0324,-0.0318,-0.0327,-0.0333,-0.0404,-0.0405,-0.0406,-0.0377,-0.0375,-0.0374,0,0,0,0,0,0,-0.0093,-0.012,-0.0126,-0.014,-0.0155,-0.0183,-0.0188,-0.0201,-0.0225,-0.0227,-0.0262,-0.0272,-0.0302,-0.0322,-0.0313,-0.0359,-0.0366,-0.0369,-0.0341,-0.034,-0.0339,-0.0306,-0.0332,0,0,0,0,0,-0.009,-0.01,-0.0124,-0.0133,-0.0139,-0.0162,-0.0172,-0.0183,-0.0208,-0.0218,-0.0248,-0.028,-0.0313,-0.0328,-0.0359,-0.0384,-0.0385,-0.0394,-0.0393,-0.0392,-0.0372,-0.0391,-0.039,-0.0409,-0.0409,-0.0409,0,0,-0.0088,-0.0102,-0.0109,-0.013,-0.0143,-0.0144,-0.0167,-0.0178,-0.0181,-0.0224,-0.0242,-0.0279,-0.0319,-0.0347,-0.0362,-0.0364,-0.0386,-0.0393,-0.0391,-0.0372,-0.0392,-0.039,-0.0388,-0.0409,-0.0409,-0.0409,0,0,-0.0077,-0.0097,-0.0095,-0.0106,-0.012,-0.0132,-0.0133,-0.0159,-0.0172,-0.0195,-0.0229,-0.0263,-0.0312,-0.0338,-0.0359,-0.0369,-0.0381,-0.0387,-0.0353,-0.0373,-0.0371,-0.037,-0.0357,-0.0355,-0.0384,-0.0384,-0.0384,0,-0.0067,-0.007,-0.0096,-0.0093,-0.0092,-0.0123,-0.011,-0.0133,-0.0167,-0.0172,-0.0195,-0.0262,-0.0303,-0.033,-0.0339,-0.0365,-0.0368,-0.0355,-0.037,-0.0369,-0.0367,-0.0355,-0.0353,-0.0383,-0.0383,-0.0383,-0.0383,0,-0.0047,-0.0051,-0.0051,-0.0053,-0.0057,-0.0055,-0.0079,-0.009,-0.0111,-0.0132,-0.0165,-0.0225,-0.0256,-0.0288,-0.0319,-0.0335,-0.0336,-0.0367,-0.0368,-0.0363,-0.0351,-0.0349,-0.0381,-0.0381,-0.0382,-0.0382,0,0,-0.0003,-0.003,-0.0024,-0.0018,-0.0032,-0.0029,-0.0034,-0.004,-0.0029,-0.0086,-0.0079,-0.016,-0.0187,-0.0211,-0.0262,-0.029,-0.0294,-0.0321,-0.0323,-0.0297,-0.0312,-0.0282,-0.0277,-0.0332,-0.0332,-0.0332,-0.0302,0,0.0032,0.0047,0.0027,0.005,0.0059,0.0034,0.004,0.0027,0.0007,0.0001,-0.0068,-0.0089,-0.016,-0.0174,-0.0214,-0.0272,-0.0289,-0.0297,-0.0329,-0.0328,-0.0295,-0.0275,-0.026,-0.0229,-0.03,-0.0299,-0.0299,0,0.0078,0.0081,0.011,0.011,0.0116,0.0127,0.0149,0.0147,0.0124,0.0109,0.0072,0.0018,-0.0031,-0.0096,-0.0173,-0.0175,-0.0232,-0.0282,-0.0283,-0.026,-0.0296,-0.025,-0.0223,-0.0388,-0.0296,-0.0296,-0.0297,0,0.0145,0.0145,0.0174,0.0173,0.0168,0.0186,0.0192,0.0188,0.021,0.0183,0.0198,0.0119,0.0106,0.0005,-0.0092,-0.0137,-0.016,-0.0237,-0.0258,-0.0256,-0.0248,-0.0246,-0.0373,-0.0282,-0.0282,-0.0282,-0.0282,0,0.0198,0.022,0.0207,0.0223,0.0276,0.0251,0.0312,0.0303,0.0316,0.0376,0.0264,0.0299,0.0129,0.0088,-0.0035,-0.0108,-0.011,-0.0229,-0.0245,-0.0237,-0.0233,-0.0381,-0.0478,-0.0281,-0.0281,-0.0281,-0.0282,0,0.0266,0.0252,0.0288,0.0295,0.0308,0.0351,0.0399,0.0441,0.0437,0.0515,0.0512,0.0453,0.0411,0.0262,0.0135,0.0001,-0.0178,-0.0127,-0.0084,-0.0096,-0.0305,-0.04,-0.0505,-0.0561,-0.0166,-0.0165,-0.0164,0,0.0295,0.0319,0.0358,0.0397,0.0406,0.0461,0.0509,0.0512,0.0572,0.0632,0.0685,0.0657,0.0688,0.0513,0.0277,0.0097,-0.0086,-0.0044,-0.0145,-0.0291,-0.041,-0.0489,-0.0535,-0.0121,-0.012,-0.0119,-0.0118,0,0.0361,0.038,0.0416,0.05,0.0556,0.0622,0.0691,0.0759,0.08,0.0882,0.0998,0.1027,0.0867,0.0695,0.0424,0.0262,-0.0159,-0.0032,-0.021,-0.0394,-0.0461,-0.0529,-0.015,-0.0111,-0.0111,-0.0112,-0.0112,-0.0113,0.0426,0.0472,0.053,0.0613,0.0682,0.0786,0.0863,0.0963,0.11,0.1249,0.1264,0.1357,0.1044,0.068,0.0438,-0.0049,-0.0077,-0.0236,-0.0336,-0.04,-0.0469,-0.0046,-0.0015,-0.0015,-0.0016,-0.0016,-0.0016,0,0.0511,0.0561,0.0637,0.074,0.0834,0.085,0.0989,0.1085,0.128,0.1446,0.1579,0.1511,0.1128,0.0685,0.0041,-0.0309,-0.0458,-0.0513,-0.0657,-0.0689,-0.0334,-0.035,-0.0357,-0.0357,-0.0356,-0.0356,-0.0356,-0.0356,0.0564,0.0654,0.0688,0.0854,0.0929,0.1059,0.1146,0.1309,0.1452,0.168,0.177,0.1811,0.1465,0.0315,-0.0488,-0.0675,-0.0921,-0.0966,-0.1088,-0.0899,-0.0883,-0.0868,-0.0908,-0.1032,-0.1032,-0.1404,-0.1408,-0.1411]}],[{"header":{"parameterUnit":"m.s-1","parameterCategory":2,"la1":30.2991,"la2":30.254,"lo1":-89.0895,"lo2":-89.0444,"dy":0.0017,"dx":0.0017,"nx":28,"ny":28,"refTime":"2023-09-22T21:00:00:Z","depth":"2","parameterNumber":2,"parameterNumberName":"U-component_of_CURRENTS"},"data":[0,0,0,0,0,0,0,0,0,0,0,0,0,0,0,0,0,0,0,0,0,0,0,0,0,0,0,0,0,0,0,0,0,0,0,0,0,0,0,0,0,0,0,0,0,0,0,0,0,0,0,0,0,0,0,0,0,0,0.2395,0.2396,0,0.2428,0.2427,0.2427,0.2446,0.2447,0.2447,0.2448,0.2462,0.2462,0.2461,0,0,0,0,0,0,0,0,0,0,0,0,0,0.2347,0.2347,0.2395,0.2396,0.2397,0.2428,0.2427,0.2427,0.2446,0.2447,0.2447,0.2448,0.2462,0.2462,0.2461,0,0,0,0,0,0,0,0,0,0,0,0,0,0.2368,0.2347,0.2395,0.2414,0.2416,0.2428,0.2427,0.2427,0.2446,0.2447,0.2448,0.2448,0.2462,0.2462,0.2461,0.2444,0,0,0.2461,0.2461,0,0,0,0,0,0,0,0,0.2366,0.2369,0.241,0.2412,0.2415,0.2438,0.2416,0.2434,0.2446,0.2429,0.2448,0.2449,0.2455,0.2455,0.2452,0.2445,0.2445,0.2461,0.2461,0.2461,0.246,0,0,0,0,0,0,0,0.2365,0.2367,0.2403,0.2411,0.2414,0.242,0.2423,0.2419,0.2433,0.2431,0.2433,0.2445,0.2455,0.2453,0.2453,0.2445,0.2461,0.2461,0.246,0.246,0.2504,0.2505,0,0,0,0,0,0,0.237,0.2366,0.2402,0.2404,0.2398,0.2421,0.2424,0.2426,0.2433,0.2437,0.2444,0.2446,0.2453,0.2453,0.2454,0.2511,0.2461,0.246,0.246,0.2502,0.2504,0.2505,0,0,0,0,0,0,0.2369,0.2373,0.2401,0.2391,0.2395,0.2421,0.2423,0.2426,0.243,0.2445,0.2447,0.2447,0.2453,0.2454,0.2472,0.2509,0.246,0.246,0.2501,0.2503,0.2505,0.2577,0,0,0,0,0,0,0.2367,0.2372,0.2375,0.2391,0.2396,0.2418,0.2423,0.2426,0.2439,0.2441,0.2447,0.2449,0.2454,0.2472,0.2472,0.2508,0.246,0.2499,0.2502,0.2504,0.2573,0.2581,0.2588,0,0,0,0,0,0.2365,0.2375,0.2375,0.238,0.2399,0.2419,0.2421,0.2439,0.2438,0.2444,0.2457,0.2449,0.2488,0.2473,0.2472,0.2509,0.2498,0.2501,0.2504,0.2569,0.2579,0.2588,0,0,0,0,0,0,0.2361,0.2379,0.2379,0.2394,0.2408,0.2424,0.2443,0.2438,0.245,0.2464,0.2457,0.2461,0.2497,0.2484,0.2468,0.2529,0.2494,0.2497,0.2545,0.2554,0.2561,0.2564,0.246,0,0,0,0,0,0.2359,0.2369,0.2385,0.2398,0.2411,0.2421,0.2431,0.2444,0.2459,0.2464,0.2471,0.2485,0.2505,0.2513,0.2529,0.2547,0.2548,0.2572,0.258,0.2586,0.2588,0.2632,0.2644,0.2515,0.2515,0.2514,0,0,0.2359,0.2375,0.2378,0.2398,0.2415,0.2437,0.2429,0.246,0.2479,0.2464,0.2498,0.2512,0.2516,0.2557,0.2571,0.2551,0.2624,0.259,0.2596,0.2594,0.2636,0.2649,0.266,0.2516,0.2516,0.2516,0,0,0.2372,0.2383,0.2397,0.2415,0.2451,0.2461,0.2468,0.2492,0.2508,0.2534,0.2543,0.2573,0.2588,0.2611,0.2619,0.2668,0.2665,0.2678,0.2716,0.276,0.2771,0.278,0.2798,0.2808,0.2679,0.2679,0.2679,0,0.237,0.2391,0.2404,0.2431,0.2455,0.247,0.2496,0.2512,0.2539,0.2561,0.2559,0.2611,0.2616,0.2664,0.2693,0.2687,0.2704,0.2683,0.2771,0.278,0.2789,0.2804,0.2815,0.2683,0.2682,0.2682,0.2682,0,0.2402,0.2416,0.2436,0.2469,0.2492,0.2525,0.2555,0.2581,0.2601,0.262,0.2677,0.269,0.2723,0.2734,0.273,0.28,0.279,0.278,0.2749,0.2807,0.2818,0.2829,0.2688,0.2687,0.2686,0.2685,0,0,0.2384,0.2443,0.2441,0.246,0.2521,0.2535,0.2589,0.2632,0.2666,0.2702,0.2749,0.2791,0.2809,0.2819,0.2825,0.2857,0.2936,0.2852,0.2853,0.2871,0.3027,0.2992,0.2999,0.2953,0.2956,0.2957,0.3009,0,0.2398,0.2435,0.2472,0.2508,0.2532,0.258,0.2621,0.2669,0.2713,0.2765,0.28,0.2851,0.2838,0.287,0.2905,0.2933,0.2967,0.2921,0.2965,0.2966,0.2931,0.3012,0.277,0.2795,0.3019,0.3021,0.3022,0,0.2407,0.2431,0.2467,0.2522,0.254,0.2576,0.265,0.2694,0.278,0.2821,0.2887,0.2917,0.2983,0.296,0.3036,0.3015,0.3032,0.3039,0.3042,0.299,0.2951,0.2774,0.2805,0.3038,0.3037,0.3036,0.3035,0,0.2363,0.242,0.2444,0.2467,0.2539,0.2579,0.263,0.2716,0.2765,0.2873,0.2922,0.2997,0.3048,0.3085,0.3118,0.3092,0.3193,0.3153,0.3129,0.3125,0.2916,0.2891,0.3209,0.3209,0.3208,0.3208,0.3208,0,0.2351,0.2366,0.2428,0.244,0.249,0.2559,0.263,0.2697,0.28,0.2868,0.2955,0.301,0.309,0.3153,0.3158,0.3189,0.3232,0.3153,0.315,0.2934,0.2911,0.3112,0.31,0.321,0.321,0.3209,0.3209,0,0.2296,0.2333,0.2368,0.2443,0.2471,0.2513,0.2629,0.2674,0.2788,0.2884,0.2926,0.305,0.3138,0.3197,0.3268,0.3242,0.3266,0.3263,0.2998,0.2964,0.3149,0.314,0.3228,0.3228,0.3227,0.3227,0.3227,0,0.2265,0.228,0.2353,0.2377,0.2419,0.2491,0.2537,0.2659,0.2715,0.2889,0.2923,0.3061,0.3118,0.3217,0.3222,0.3243,0.3284,0.302,0.2922,0.317,0.3158,0.315,0.3142,0.2663,0.2658,0.2654,0.2651,0,0.2224,0.2259,0.2282,0.2325,0.2375,0.2422,0.2506,0.2539,0.2685,0.2757,0.2856,0.2922,0.3059,0.2982,0.3051,0.3021,0.2997,0.2941,0.3283,0.2709,0.2646,0.2631,0.264,0.2615,0.2619,0.2622,0.2624,0.2625,0.2189,0.2199,0.2231,0.2266,0.2313,0.2332,0.2326,0.2407,0.2458,0.2539,0.2688,0.2714,0.2783,0.2758,0.2693,0.2661,0.2856,0.2707,0.2715,0.2728,0.2668,0.2609,0.2558,0.2561,0.2564,0.2566,0.2568,0,0.2118,0.2146,0.2171,0.219,0.2181,0.2247,0.2275,0.2233,0.223,0.2352,0.2411,0.2272,0.225,0.2322,0.2227,0.2246,0.2184,0.2144,0.2026,0.2065,0.21,0.2001,0.1718,0.1715,0.1712,0.1709,0,0,0.2086,0.2063,0.2069,0.2036,0.2057,0.1997,0.1978,0.1943,0.1974,0.1945,0.196,0.2147,0.2259,0.195,0.1926,0.1798,0.1904,0.1731,0.2422,0.2323,0.2352,0.2448,0.2347,0,0,0,0,0]},{"header":{"parameterUnit":"m.s-1","parameterCategory":2,"la1":30.2991,"la2":30.254,"lo1":-89.0895,"lo2":-89.0444,"dy":0.0017,"dx":0.0017,"nx":28,"ny":28,"refTime":"2023-09-22T21:00:00:Z","depth":"2","parameterNumber":3,"parameterNumberName":"V-component_of_CURRENTS"},"data":[0,0,0,0,0,0,0,0,0,0,0,0,0,0,0,0,0,0,0,0,0,0,0,0,0,0,0,0,0,0,0,0,0,0,0,0,0,0,0,0,0,0,0,0,0,0,0,0,0,0,0,0,0,0,0,0,0,0,0.0096,0.0096,0,0.0052,0.0052,0.0051,0.0012,0.0011,0.0011,0.0011,-0.0051,-0.0053,-0.0054,0,0,0,0,0,0,0,0,0,0,0,0,0,0.0115,0.0115,0.0096,0.0096,0.0095,0.0052,0.0052,0.0051,0.0012,0.0011,0.0011,0.001,-0.0051,-0.0053,-0.0054,0,0,0,0,0,0,0,0,0,0,0,0,0,0.0092,0.0115,0.0096,0.0071,0.0068,0.0052,0.0052,0.0051,0.0012,0.0011,0.0011,0.001,-0.0051,-0.0052,-0.0054,-0.0054,0,0,-0.006,-0.0061,0,0,0,0,0,0,0,0,0.0093,0.0091,0.0075,0.0073,0.007,0.0037,0.0035,0.0015,0.0012,0.0033,0.0011,0.001,-0.0023,-0.0027,-0.0034,-0.0057,-0.0059,-0.006,-0.0061,-0.0062,-0.0063,0,0,0,0,0,0,0,0.0095,0.0093,0.0078,0.0075,0.0071,0.0051,0.0047,0.0031,0.0008,0.0031,0.0028,0.0024,-0.0024,-0.0032,-0.0036,-0.006,-0.006,-0.0062,-0.0063,-0.0064,-0.0094,-0.0094,0,0,0,0,0,0,0.0104,0.0095,0.008,0.0077,0.0081,0.0051,0.0047,0.0048,0.0009,0.0003,0.0025,0.0023,-0.0029,-0.0034,-0.0038,-0.0039,-0.0062,-0.0064,-0.0065,-0.0095,-0.0094,-0.0094,0,0,0,0,0,0,0.0105,0.0103,0.0081,0.0085,0.0081,0.0052,0.0053,0.0047,0.0042,0.0004,-0.0002,0.0025,-0.003,-0.0036,-0.005,-0.0042,-0.0065,-0.0067,-0.0095,-0.0094,-0.0094,-0.004,0,0,0,0,0,0,0.0105,0.0104,0.0108,0.0086,0.0081,0.0082,0.0053,0.0047,0.004,0.0037,0.0003,-0.0004,-0.003,-0.0047,-0.0052,-0.0045,-0.0068,-0.0095,-0.0095,-0.0094,-0.0042,-0.0038,-0.0034,0,0,0,0,0,0.0106,0.012,0.0109,0.0107,0.0088,0.0083,0.0079,0.0055,0.0041,0.0046,0.0018,-0.0003,-0.0046,-0.0048,-0.0054,-0.0047,-0.0096,-0.0095,-0.0094,-0.0044,-0.0039,-0.0034,0,0,0,0,0,0,0.0131,0.0116,0.0104,0.0112,0.0101,0.0077,0.0077,0.0063,0.0045,0.0037,0.0003,-0.0005,-0.0016,-0.0037,-0.0037,-0.0054,-0.0075,-0.0075,-0.0035,-0.003,-0.0026,-0.0005,-0.007,0,0,0,0,0,0.0139,0.0144,0.0126,0.0132,0.0128,0.0103,0.0098,0.0083,0.0064,0.0055,0.003,0.0002,-0.0018,-0.0027,-0.005,-0.0054,-0.0078,-0.0055,-0.0051,-0.0047,-0.0034,-0.0068,-0.0065,-0.0091,-0.0091,-0.0091,0,0,0.0152,0.0142,0.0146,0.0137,0.0123,0.013,0.0099,0.0094,0.0101,0.0051,0.0049,0.0016,-0.0016,-0.0026,-0.0033,-0.0041,-0.0052,-0.0046,-0.0042,-0.0032,-0.0067,-0.0064,-0.0062,-0.0091,-0.0091,-0.0091,0,0,0.0181,0.0169,0.0183,0.0177,0.0162,0.015,0.0153,0.0131,0.0122,0.0117,0.0079,0.0056,0.0029,0.0005,-0.0008,0.0008,-0.0031,-0.0004,0.0037,0.0004,0.0006,0.0007,-0.0019,-0.002,0.0,0.0001,0.0001,0,0.0196,0.021,0.0188,0.0197,0.0196,0.0164,0.0181,0.0172,0.0149,0.0146,0.0125,0.0078,0.0047,0.0037,0.0038,0.0019,-0.0007,0.0021,0.001,0.0011,0.0011,-0.0016,-0.0018,0.0003,0.0003,0.0003,0.0002,0,0.0232,0.0243,0.025,0.0252,0.0251,0.0258,0.0243,0.0241,0.0224,0.0209,0.0192,0.0145,0.0119,0.0101,0.0075,0.0064,0.0042,0.0017,-0.0001,0.0017,-0.0013,-0.0016,0.0007,0.0006,0.0005,0.0005,0,0,0.027,0.0276,0.0281,0.0293,0.0279,0.0287,0.0297,0.0301,0.0317,0.0278,0.029,0.024,0.0205,0.0187,0.0142,0.0113,0.0089,0.0071,0.0068,0.005,0.0019,0.0,-0.0006,0.0057,0.0057,0.0057,-0.0004,0,0.0306,0.0344,0.0332,0.037,0.0388,0.0363,0.0381,0.0376,0.0365,0.0367,0.0312,0.0301,0.0241,0.0226,0.0187,0.0116,0.0083,0.0108,0.0,-0.0002,-0.0018,-0.0009,0.0017,-0.0035,-0.0007,-0.0007,-0.0008,0,0.0345,0.0369,0.0412,0.0436,0.0441,0.0457,0.0478,0.0488,0.0478,0.0467,0.0436,0.0391,0.0344,0.029,0.0181,0.0197,0.0117,0.0056,0.0052,0.0017,-0.0027,-0.0049,-0.0042,-0.0014,-0.0013,-0.0013,-0.0012,0,0.0391,0.0424,0.0464,0.0469,0.049,0.0507,0.0519,0.052,0.0545,0.053,0.0543,0.0467,0.0442,0.0332,0.0203,0.0189,0.0083,0.0046,-0.0047,-0.0049,-0.0055,-0.0057,-0.0031,-0.0031,-0.0031,-0.003,-0.003,0,0.0433,0.0467,0.0491,0.0515,0.0571,0.0559,0.0612,0.0616,0.0631,0.0675,0.0597,0.0611,0.045,0.0367,0.0235,0.0092,0.0103,-0.0032,-0.0064,-0.0036,-0.0036,-0.0041,-0.0041,-0.0033,-0.0032,-0.0032,-0.0031,0,0.0474,0.0487,0.0538,0.0575,0.0595,0.0633,0.0683,0.0722,0.0726,0.0783,0.0783,0.0719,0.0611,0.0446,0.0272,0.0146,0.0003,-0.0054,-0.0007,-0.0032,-0.0117,-0.0113,-0.0162,-0.0163,-0.0164,-0.0164,-0.0165,0,0.05,0.053,0.0591,0.0628,0.0648,0.0704,0.075,0.0772,0.0821,0.0857,0.0893,0.081,0.0765,0.0502,0.0265,0.0034,-0.0,-0.0098,-0.0124,-0.0103,-0.0129,-0.0125,-0.012,-0.0113,-0.0113,-0.0113,-0.0114,0,0.0548,0.0563,0.0607,0.0689,0.0745,0.0814,0.0883,0.0941,0.0979,0.1023,0.1063,0.1029,0.0795,0.0559,0.0241,0.0089,-0.0061,-0.0109,-0.0099,-0.0082,-0.0062,-0.0086,-0.0083,-0.0115,-0.0115,-0.0115,-0.0115,-0.0115,0.0582,0.0619,0.0674,0.0749,0.0819,0.0913,0.0976,0.1054,0.1139,0.1205,0.118,0.1132,0.088,0.047,0.0201,-0.0078,-0.0067,-0.0171,-0.0168,-0.0166,-0.0148,-0.013,-0.0192,-0.0193,-0.0193,-0.0193,-0.0193,0,0.0622,0.0662,0.0732,0.082,0.0895,0.0932,0.1056,0.1113,0.1216,0.1274,0.129,0.1056,0.08,0.051,0.0095,-0.0153,-0.0164,-0.023,-0.0192,-0.0188,-0.0186,-0.0168,-0.0218,-0.0219,-0.022,-0.0221,0,0,0.0642,0.0705,0.0737,0.086,0.0927,0.1034,0.1106,0.1197,0.1261,0.1299,0.1278,0.1226,0.0887,0.0581,0.0247,0.0008,-0.0032,-0.0033,0.0015,0.0103,0.0109,-0.0121,-0.0086,0,0,0,0,0]}],[{"header":{"parameterUnit":"m.s-1","parameterCategory":2,"la1":30.2991,"la2":30.254,"lo1":-89.0895,"lo2":-89.0444,"dy":0.0017,"dx":0.0017,"nx":28,"ny":28,"refTime":"2023-09-22T21:00:00:Z","depth":"4","parameterNumber":2,"parameterNumberName":"U-component_of_CURRENTS"},"data":[0,0,0,0,0,0,0,0,0,0,0,0,0,0,0,0,0,0,0,0,0,0,0,0,0,0,0,0,0,0,0,0,0,0,0,0,0,0,0,0,0,0,0,0,0,0,0,0,0,0,0,0,0,0,0,0,0,0,0.1412,0.1413,0,0.1471,0.1471,0.1472,0.152,0.1521,0.1521,0.1522,0.1592,0.1593,0.1594,0,0,0,0,0,0,0,0,0,0,0,0,0,0.134,0.1341,0.1412,0.1413,0.1414,0.1471,0.1471,0.1472,0.152,0.1521,0.1522,0.1522,0.1591,0.1593,0.1594,0,0,0,0,0,0,0,0,0,0,0,0,0,0.138,0.1341,0.1412,0.1446,0.145,0.1471,0.1471,0.1472,0.152,0.1521,0.1522,0.1523,0.1591,0.1593,0.1594,0.1585,0,0,0.16,0.1601,0,0,0,0,0,0,0,0,0.1378,0.1382,0.144,0.1444,0.1448,0.1491,0.1472,0.1511,0.152,0.1491,0.1522,0.1523,0.156,0.1564,0.157,0.1588,0.1591,0.16,0.1601,0.1602,0.1603,0,0,0,0,0,0,0,0.1375,0.138,0.1433,0.1441,0.1446,0.1458,0.1465,0.1479,0.1518,0.1494,0.1498,0.1507,0.1562,0.1568,0.1572,0.1592,0.16,0.1602,0.1603,0.1604,0.1706,0.1708,0,0,0,0,0,0,0.1371,0.1378,0.1432,0.1435,0.1417,0.1459,0.1466,0.1475,0.1517,0.1525,0.1506,0.1509,0.1564,0.157,0.1574,0.1652,0.1602,0.1604,0.1605,0.1705,0.1707,0.1708,0,0,0,0,0,0,0.1369,0.1375,0.1429,0.1409,0.1418,0.1459,0.1468,0.1475,0.1515,0.1527,0.1535,0.1543,0.1565,0.1572,0.1616,0.1652,0.1605,0.1606,0.1703,0.1705,0.1708,0.1751,0,0,0,0,0,0,0.1367,0.1374,0.1392,0.1409,0.1419,0.1461,0.1468,0.1476,0.1518,0.1523,0.156,0.1566,0.1567,0.1614,0.1618,0.1653,0.1608,0.1701,0.1704,0.1707,0.1748,0.1755,0.1761,0,0,0,0,0,0.1364,0.1379,0.1393,0.14,0.1438,0.1462,0.1469,0.15,0.1519,0.1539,0.1568,0.1567,0.1637,0.1616,0.1621,0.1658,0.1699,0.1703,0.1707,0.1745,0.1754,0.1761,0,0,0,0,0,0,0.1359,0.1386,0.1402,0.1426,0.1453,0.1472,0.1499,0.1518,0.1555,0.1572,0.1582,0.1589,0.1644,0.1644,0.1622,0.1698,0.167,0.1675,0.1698,0.1706,0.1712,0.1718,0.1609,0,0,0,0,0,0.1365,0.1388,0.1412,0.1437,0.1452,0.1482,0.1503,0.1524,0.1552,0.1572,0.1595,0.1625,0.1656,0.1677,0.1699,0.1736,0.1743,0.1765,0.1772,0.1777,0.1787,0.1822,0.1832,0.1721,0.1721,0.172,0,0,0.1369,0.1391,0.1403,0.1438,0.1464,0.149,0.1498,0.1539,0.1568,0.1572,0.1627,0.165,0.1672,0.1717,0.1742,0.1726,0.1815,0.1782,0.1787,0.1793,0.1827,0.1838,0.1847,0.1723,0.1723,0.1722,0,0,0.1381,0.1411,0.1431,0.1457,0.1502,0.1519,0.1538,0.1573,0.1602,0.1649,0.1665,0.171,0.1752,0.1773,0.1789,0.1846,0.185,0.1862,0.19,0.1934,0.1944,0.1952,0.198,0.199,0.1865,0.1865,0.1865,0,0.1389,0.1416,0.1442,0.1471,0.1497,0.1536,0.1564,0.1595,0.1642,0.1668,0.1677,0.176,0.1778,0.1835,0.186,0.1862,0.1882,0.1865,0.1942,0.1951,0.1958,0.1985,0.1996,0.1867,0.1867,0.1867,0.1866,0,0.1406,0.1441,0.1459,0.1506,0.1537,0.1571,0.1611,0.1653,0.1694,0.1722,0.1796,0.1823,0.1874,0.189,0.1896,0.1966,0.1963,0.1946,0.1918,0.1972,0.1997,0.2007,0.1871,0.187,0.1869,0.1869,0,0,0.139,0.1456,0.1467,0.1492,0.156,0.158,0.1643,0.1697,0.1744,0.1798,0.1856,0.1918,0.1945,0.1967,0.1984,0.2016,0.2088,0.2014,0.2014,0.2036,0.2172,0.2045,0.2044,0.2089,0.2091,0.2093,0.2169,0,0.14,0.1446,0.1484,0.1536,0.156,0.1618,0.1669,0.1729,0.1787,0.185,0.1902,0.1966,0.1971,0.201,0.2047,0.2083,0.2119,0.207,0.2122,0.2124,0.1999,0.2052,0.2099,0.2176,0.2179,0.218,0.2181,0,0.1401,0.1432,0.1481,0.1546,0.1565,0.161,0.1698,0.1751,0.1849,0.1898,0.1976,0.2017,0.2098,0.2084,0.2178,0.2152,0.2175,0.2189,0.2191,0.2064,0.2016,0.2112,0.22,0.2199,0.2197,0.2196,0.2195,0,0.1359,0.1428,0.1466,0.149,0.1572,0.1618,0.1674,0.1772,0.1828,0.1942,0.1998,0.2086,0.2151,0.2194,0.2245,0.2224,0.233,0.2294,0.2199,0.2191,0.2262,0.2252,0.2353,0.2353,0.2353,0.2353,0.2353,0,0.1337,0.1369,0.1455,0.1474,0.1531,0.1602,0.1684,0.1754,0.1866,0.193,0.2029,0.2087,0.2186,0.2254,0.2275,0.2276,0.236,0.2218,0.2204,0.2279,0.2271,0.227,0.2259,0.2356,0.2355,0.2355,0.2354,0,0.1281,0.1339,0.1385,0.1479,0.1514,0.156,0.1687,0.1737,0.186,0.195,0.1994,0.2124,0.2208,0.2283,0.2362,0.2306,0.2318,0.2296,0.2391,0.238,0.2148,0.2139,0.2185,0.2181,0.2178,0.2175,0.2173,0,0.1252,0.1271,0.1378,0.1412,0.1462,0.1545,0.1598,0.1726,0.1779,0.1948,0.1974,0.2109,0.2179,0.2195,0.2279,0.2311,0.2285,0.2272,0.2188,0.215,0.2133,0.2128,0.2124,0.2168,0.2167,0.2166,0.2165,0,0.1191,0.1247,0.1287,0.1358,0.1419,0.1473,0.1561,0.1589,0.1728,0.1856,0.1914,0.1963,0.2057,0.2114,0.2167,0.2179,0.2264,0.2237,0.2243,0.2164,0.213,0.2115,0.2114,0.2154,0.2156,0.2157,0.2157,0,0.1156,0.1168,0.1232,0.1284,0.1354,0.1373,0.1432,0.1491,0.1561,0.1742,0.1759,0.1902,0.2033,0.2048,0.2091,0.2103,0.2062,0.1979,0.1997,0.201,0.1917,0.1846,0.178,0,0,0,0,0,0.1111,0.1111,0.1148,0.1191,0.1256,0.1296,0.1389,0.1449,0.1583,0.1581,0.1667,0.1743,0.1812,0.1888,0.1867,0.2011,0.2067,0.1976,0.198,0.2092,0.2105,0.2012,0,0,0,0,0,0,0.108,0.1111,0.1113,0.1102,0.1118,0.1166,0.1221,0.1309,0.1318,0.1469,0.1521,0.1639,0.1739,0.1816,0.1837,0.186,0.1825,0.2073,0.2068,0.2085,0.2096,0.2107,0.2015,0,0,0,0,0]},{"header":{"parameterUnit":"m.s-1","parameterCategory":2,"la1":30.2991,"la2":30.254,"lo1":-89.0895,"lo2":-89.0444,"dy":0.0017,"dx":0.0017,"nx":28,"ny":28,"refTime":"2023-09-22T21:00:00:Z","depth":"4","parameterNumber":3,"parameterNumberName":"V-component_of_CURRENTS"},"data":[0,0,0,0,0,0,0,0,0,0,0,0,0,0,0,0,0,0,0,0,0,0,0,0,0,0,0,0,0,0,0,0,0,0,0,0,0,0,0,0,0,0,0,0,0,0,0,0,0,0,0,0,0,0,0,0,0,0,0.0155,0.0155,0,0.0132,0.0131,0.0131,0.0109,0.0108,0.0108,0.0108,0.0067,0.0067,0.0066,0,0,0,0,0,0,0,0,0,0,0,0,0,0.0156,0.0157,0.0155,0.0155,0.0155,0.0132,0.0131,0.0131,0.0109,0.0108,0.0108,0.0108,0.0068,0.0067,0.0066,0,0,0,0,0,0,0,0,0,0,0,0,0,0.0146,0.0157,0.0155,0.0141,0.014,0.0132,0.0131,0.0131,0.0109,0.0108,0.0108,0.0108,0.0068,0.0067,0.0066,0.0065,0,0,0.0062,0.0061,0,0,0,0,0,0,0,0,0.0147,0.0146,0.0143,0.0142,0.014,0.0123,0.0117,0.0108,0.0109,0.012,0.0108,0.0107,0.0085,0.0082,0.0078,0.0063,0.0062,0.0062,0.0061,0.006,0.006,0,0,0,0,0,0,0,0.0148,0.0147,0.0145,0.0143,0.0141,0.0127,0.0126,0.0115,0.0104,0.0119,0.0117,0.0116,0.0084,0.008,0.0077,0.0061,0.0062,0.006,0.006,0.0059,0.0042,0.0043,0,0,0,0,0,0,0.0153,0.0148,0.0146,0.0145,0.0143,0.0128,0.0126,0.0129,0.0105,0.0101,0.0116,0.0115,0.0082,0.0079,0.0076,0.0085,0.006,0.0059,0.0058,0.0042,0.0043,0.0043,0,0,0,0,0,0,0.0153,0.0154,0.0147,0.0146,0.0144,0.0129,0.0131,0.0128,0.0125,0.0103,0.0098,0.0116,0.0082,0.0077,0.0071,0.0083,0.0058,0.0057,0.0042,0.0042,0.0043,0.0097,0,0,0,0,0,0,0.0154,0.0154,0.0158,0.0146,0.0144,0.015,0.0132,0.0128,0.0125,0.0123,0.0102,0.0097,0.0081,0.0073,0.007,0.0081,0.0056,0.0041,0.0042,0.0043,0.0094,0.0099,0.0103,0,0,0,0,0,0.0154,0.0167,0.0159,0.0159,0.0151,0.015,0.0148,0.0135,0.0125,0.013,0.0114,0.0098,0.0074,0.0073,0.0069,0.0079,0.0041,0.0042,0.0043,0.0092,0.0098,0.0102,0,0,0,0,0,0,0.0172,0.0166,0.0156,0.0167,0.0161,0.0147,0.0151,0.0139,0.0131,0.0128,0.0104,0.0099,0.0097,0.008,0.0079,0.0075,0.0054,0.0054,0.0094,0.0099,0.0103,0.0112,0.0055,0,0,0,0,0,0.0177,0.0184,0.0174,0.0181,0.0181,0.0165,0.0163,0.0154,0.0143,0.0139,0.0124,0.0107,0.0097,0.0092,0.0079,0.0079,0.0051,0.0081,0.0086,0.0089,0.0093,0.0061,0.0063,0.0045,0.0045,0.0045,0,0,0.0187,0.0183,0.0188,0.0185,0.0179,0.0186,0.0163,0.0165,0.0172,0.0136,0.0142,0.0122,0.01,0.01,0.0097,0.0088,0.0079,0.009,0.0094,0.0095,0.0062,0.0064,0.0065,0.0046,0.0046,0.0046,0,0,0.021,0.0207,0.0219,0.0217,0.021,0.0203,0.0206,0.0195,0.0192,0.0194,0.0169,0.0156,0.0143,0.0128,0.0119,0.0137,0.0102,0.0133,0.0163,0.0132,0.0133,0.0134,0.01,0.0097,0.0136,0.0136,0.0136,0,0.0221,0.0235,0.0223,0.0233,0.0237,0.0215,0.0231,0.0227,0.0215,0.0215,0.0203,0.0178,0.0157,0.0154,0.016,0.0147,0.0122,0.0148,0.0138,0.0138,0.0138,0.0103,0.0099,0.0139,0.0138,0.0138,0.0138,0,0.025,0.0262,0.0271,0.0277,0.028,0.0291,0.0284,0.0286,0.0278,0.0268,0.0263,0.0233,0.0217,0.0208,0.0191,0.0183,0.0162,0.0147,0.0127,0.0143,0.0105,0.01,0.0143,0.0142,0.0141,0.014,0,0,0.0273,0.0289,0.0293,0.0306,0.0305,0.0315,0.0328,0.0335,0.0347,0.0326,0.0335,0.0309,0.0284,0.0272,0.0243,0.0217,0.0191,0.0186,0.0183,0.0156,0.0119,0.01,0.0092,0.0174,0.0173,0.0173,0.0093,0,0.0299,0.0333,0.0332,0.0367,0.0385,0.0375,0.0393,0.0394,0.0389,0.0391,0.0354,0.035,0.0312,0.0306,0.0273,0.0214,0.0181,0.0214,0.0105,0.0102,0.0085,0.0087,0.0171,0.0089,0.0088,0.0087,0.0087,0,0.0325,0.0347,0.0386,0.0417,0.0425,0.0444,0.0468,0.0481,0.0474,0.0468,0.0448,0.0415,0.0377,0.0342,0.0245,0.0268,0.02,0.0148,0.0144,0.0104,0.0073,0.0069,0.0077,0.0078,0.0079,0.0079,0.008,0,0.0346,0.0384,0.042,0.043,0.046,0.0482,0.05,0.0506,0.0526,0.0517,0.0521,0.0466,0.0441,0.0354,0.0244,0.0245,0.013,0.0115,0.003,0.0027,0.0045,0.0045,0.0042,0.0042,0.0042,0.0042,0.0043,0,0.037,0.0401,0.0438,0.0459,0.0511,0.0518,0.0567,0.0575,0.059,0.0614,0.0564,0.0558,0.0443,0.0362,0.0259,0.0129,0.0137,0.0034,0.0006,0.0069,0.0073,0.0041,0.0042,0.0039,0.004,0.0041,0.0041,0,0.0383,0.0405,0.0453,0.0501,0.0523,0.056,0.062,0.065,0.0658,0.0685,0.0685,0.0624,0.0517,0.039,0.0241,0.0151,0.0028,-0.0023,0.0054,0.0032,-0.0059,-0.0054,-0.0121,-0.0122,-0.0124,-0.0125,-0.0125,0,0.0392,0.0418,0.0486,0.0521,0.0548,0.0607,0.0649,0.0683,0.0715,0.0722,0.0732,0.0647,0.0585,0.0366,0.0226,0.0023,-0.0009,-0.0075,-0.0067,-0.0055,-0.0075,-0.0069,-0.0063,-0.0127,-0.0127,-0.0128,-0.0128,0,0.041,0.0434,0.0474,0.0547,0.0602,0.0666,0.0727,0.0757,0.0789,0.0798,0.0767,0.0659,0.0534,0.0364,0.0203,0.0059,-0.003,-0.0087,-0.0086,-0.0079,-0.0063,-0.008,-0.0073,-0.0132,-0.0131,-0.0131,-0.0131,0,0.0422,0.0449,0.0501,0.0565,0.0636,0.07,0.0737,0.0773,0.0806,0.0812,0.0797,0.067,0.06,0.0381,0.0235,0.0089,0.0049,0.0001,-0.0003,-0.0,0.0056,0.0095,0.0051,0,0,0,0,0,0.0429,0.0458,0.0515,0.0583,0.0653,0.0697,0.0776,0.0805,0.0838,0.0822,0.0814,0.0698,0.0485,0.0396,0.0246,0.02,0.0015,0.0017,-0.0044,-0.0154,-0.0149,-0.0106,0,0,0,0,0,0,0.0432,0.0481,0.0507,0.0585,0.0632,0.0714,0.0767,0.0794,0.0787,0.0797,0.0689,0.0646,0.044,0.0565,0.0236,0.0193,0.013,-0.0077,-0.0081,-0.0156,-0.0152,-0.0149,-0.0103,0,0,0,0,0]}]]